User: anonymous   Login
Location: Unspecified
(0.0000°N, 0.0000°E)
Time: 09:36:18
(UTC+00:00)
Language:

NOSS 0 (D) - Orbit

View from above orbital plane
View from above orbital plane
View from above satellite
View from above satellite

Ground track
Ground track

The orbit data is extracted from the following two-line orbital elements,

1 05681U 71110D   14217.09997100 0.00000055  00000-0  58228-4 0    02
2 05681  69.9815 305.7901 0007000 187.8851 172.1149 13.74314432    07
Epoch (UTC): 05 August 2014 02:23:57
Eccentricity: 0.0007000
inclination: 69.9815°
perigee height: 979 km
apogee height: 989 km
right ascension of ascending node: 305.7901°
argument of perigee: 187.8851°
revolutions per day: 13.74314432
mean anomaly at epoch: 172.1149°
orbit number at epoch: 0

The dashed part of the orbit path shows where the satellite is in the earth's shadow,  

DLR